星链-36241(STARLINK-36241)

导读 | 豆包AI

STARLINK-36241(NORAD编号68154)是SpaceX星链星座中的一颗近地轨道通信卫星,隶属于SpaceX“星链”全球卫星互联网项目。星链项目旨在通过密集发射近地轨道卫星,为全球提供高速低延迟宽带互联网服务,支持流媒体、在线办公、应急通信等多场景应用。2026年SpaceX启动轨道调整计划,将包括STARLINK-36241在内的约4400颗星链卫星轨道高度从550公里降至480公里,以降低太空碰撞风险,减少太空碎片产生,应对近地轨道日益拥挤的安全挑战。

基本信息
目录编号:
68154
目录名称:
STARLINK-36241
国际标识:
2026-049N
轨道中心:
EARTH
卫星名称:
星链-36241
卫星全名:
星链-36241(STARLINK-36241)
卫星状态:
在轨 (已飞行73 天)
发射日期:
2026-03-13 UTC
国别 :
美国 (US)
星等 :
--
轨道信息
数据来源 国际轨道数据
星历时间: 2026-05-25T08:58:28+0800
7小时前
查看轨道信息
半长轴: 6843.649km
偏心率: 0.0000152
轨道倾角: 97.283°
近地点辐角 184.752°
升交点赤经 166.624°
平近点角 175.372°
近地点: 465.407km
远地点: 465.617km
周期: 93.906分钟
每日圈数: 15.334558
详细信息
固有亮度:
5
最大亮度:
2.5
卫星平台:
Starlink V1.0
覆盖范围:
全球
运营商:
太空探索技术公司
运营商所在国:
美国
制造商(研发单位):
太空探索技术公司
制造商所在国:
美国
使用方式:
暂无
卫星简介
Starlink 计划是 SpaceX 推出的全球卫星互联网项目,通过发射低轨道卫星,为全球尤其是偏远地区提供高速、低延迟的互联网服务。自 2019 年起,Starlink 已部署数千颗卫星,旨在缩小全球数字鸿沟,推动互联网普及。该项目还为军事、航空等行业提供通信支持,带来广泛经济效益。
2D轨道图
3D轨道图
轨道高度分析图
轨道倾角分析图
轨道综合分析图
查看轨道综合分析图